Location: Observatoire
(46.1952°N, 5.3391°E)
Time: 19:48:13
(UTC+01:00)

Explorer 7 - Pass Details

Date: 24 February 2026
Orbit: 430 x 541 km, 50.2° (Epoch: 10 March)

Event Time Altitude Azimuth Distance (km) Brightness Sun altitude
Rises 14:53:49 0° 264° (W) 2,408 10.6 28.1°
Reaches altitude 10° 14:55:57 10° 269° (W) 1,551 9.7 27.9°
Maximum altitude 14:59:21 52° 347° (NNW) 567 7.0 27.6°
Drops below altitude 10° 15:02:53 10° 65° (ENE) 1,603 8.8 27.2°
Sets 15:05:07 0° 70° (ENE) 2,500 9.7 27.0°
